Weather History for LTCI - October, 2011

Change the Weather History Date:

Friday, October 28, 2011

  Actual Average Record
Temperature  
Mean Temperature 42 °F -  
Max Temperature 50 °F 51 °F 64 °F (1997)
Min Temperature 33 °F 33 °F 32 °F (2013)
Degree Days  
Heating Degree Days 24    
Moisture  
Dew Point 33 °F    
Average Humidity 75    
Maximum Humidity 93    
Minimum Humidity 57    
Precipitation  
Precipitation 0.00 in 0.06 in - ()
Sea Level Pressure  
Sea Level Pressure 30.14 in    
Wind  
Wind Speed 4 mph ()    
Max Wind Speed 10 mph    
Max Gust Speed -    
Visibility 5.8 miles    
Events Rain    
Averages and records for this station are not official NWS values.
T = Trace of Precipitation, MM = Missing Value Source: Averaged Metar Reports

Daily Weather History Graph

Daily Weather History Graph

Search for Another Location

Airport or City:

Trip Planner

Search our weather history database for the weather conditions in past years. The results will help you decide how hot, cold, wet, or windy it might be!

Date:

Astronomy

Oct. 28, 2011 Rise Set
Actual Time 6:28 AM EEST 5:12 PM EEST
Civil Twilight 6:00 AM EEST 5:39 PM EEST
Nautical Twilight 5:29 AM EEST 6:10 PM EEST
Astronomical Twilight 4:59 AM EEST 6:41 PM EEST
Moon 8:15 AM EEST (10/28) 6:16 PM EEST (10/28)
Length of Visible Light 11h 38m
Length of Day
10h 43m
Waxing Crescent, 4% of the Moon is Illuminated
Oct 28
Waxing Crescent
Nov 2
First Quarter
Nov 10
Full
Nov 18
Last Quarter
Nov 25
New

Hourly Weather History & Observations

Time (EEST) Temp. Windchill Dew Point Humidity Pressure Visibility Wind Dir Wind Speed Gust Speed Precip Events Conditions
12:50 AM 37.4 °F - 35.6 °F 93% 30.15 in 3.7 mi Variable 2.3 mph - N/A Rain Light Rain
1:50 AM 37.4 °F - 35.6 °F 93% 30.15 in 3.7 mi Variable 2.3 mph - N/A Rain Light Rain
3:20 AM 37.4 °F - 35.6 °F 93% 30.15 in 5.0 mi Variable 2.3 mph - N/A   Mostly Cloudy
3:50 AM 37.4 °F - 35.6 °F 93% 30.15 in 5.0 mi Variable 2.3 mph - N/A   Mostly Cloudy
4:50 AM 37.4 °F - 35.6 °F 93% 30.15 in 4.3 mi Variable 2.3 mph - N/A Rain Light Rain
5:50 AM 33.8 °F - 28.4 °F 81% 30.18 in 5.0 mi Variable 2.3 mph - N/A   Mostly Cloudy
6:50 AM 33.8 °F 26.4 °F 30.2 °F 87% 30.18 in 6.2 mi East 9.2 mph - N/A   Scattered Clouds
7:50 AM 35.6 °F - 32.0 °F 87% 30.18 in 6.2 mi Variable 2.3 mph - N/A   Scattered Clouds
8:50 AM 42.8 °F - 35.6 °F 76% 30.18 in 6.2 mi Variable 2.3 mph - N/A   Scattered Clouds
9:50 AM 42.8 °F - 35.6 °F 76% 30.18 in 6.2 mi Variable 2.3 mph - N/A   Scattered Clouds
10:50 AM 44.6 °F - 35.6 °F 71% 30.15 in 6.2 mi Variable 2.3 mph - N/A   Scattered Clouds
11:50 AM 46.4 °F 42.4 °F 33.8 °F 62% 30.15 in 6.2 mi WSW 8.1 mph - N/A   Mostly Cloudy
12:50 PM 48.2 °F - 33.8 °F 58% 30.15 in 6.2 mi West 4.6 mph - N/A   Mostly Cloudy
1:50 PM 50.0 °F - 35.6 °F 58% 30.15 in 6.2 mi West 4.6 mph - N/A   Mostly Cloudy
2:50 PM 48.2 °F - 35.6 °F 62% 30.12 in 6.2 mi WNW 8.1 mph - N/A   Mostly Cloudy
3:50 PM 46.4 °F 42.9 °F 32.0 °F 57% 30.12 in 6.2 mi NE 6.9 mph - N/A   Mostly Cloudy
4:50 PM 42.8 °F 38.6 °F 32.0 °F 66% 30.12 in 6.2 mi East 6.9 mph - N/A   Mostly Cloudy
5:50 PM 42.8 °F 37.5 °F 32.0 °F 66% 30.12 in 6.2 mi East 9.2 mph - N/A   Mostly Cloudy
6:50 PM 41.0 °F 34.7 °F 30.2 °F 65% 30.12 in 6.2 mi ENE 10.4 mph - N/A   Mostly Cloudy
7:50 PM 41.0 °F 35.2 °F 30.2 °F 65% 30.12 in 6.2 mi ENE 9.2 mph - N/A   Mostly Cloudy
8:50 PM 39.2 °F 35.9 °F 30.2 °F 70% 30.12 in 6.2 mi East 4.6 mph - N/A   Mostly Cloudy
9:50 PM 37.4 °F 32.1 °F 28.4 °F 70% 30.12 in 6.2 mi ENE 6.9 mph - N/A   Mostly Cloudy
10:50 PM 37.4 °F - 30.2 °F 75% 30.12 in 6.2 mi SE 2.3 mph - N/A   Mostly Cloudy
11:50 PM 33.8 °F 30.8 °F 30.2 °F 87% 30.09 in 6.2 mi ENE 3.5 mph - N/A   Mostly Cloudy